Waarnemingen

Advertentie
Mijn weer
Leutkirch-Herlazhofen, Duitsland (10945): temperatuur & dauwpunt: 17.04.2018 04:00:00 - 23.04.2018 04:00:00 (CEST)Leutkirch-Herlazhofen, Duitsland (10945): temperatuur 5cm & temperatuur -5cm: 17.04.2018 04:00:00 - 23.04.2018 04:00:00 (CEST)Leutkirch-Herlazhofen, Duitsland (10945): temperatuur -20cm & temperatuur -100cm: 17.04.2018 04:00:00 - 23.04.2018 04:00:00 (CEST)Leutkirch-Herlazhofen, Duitsland (10945): windsnelheid & windstoten: 17.04.2018 04:00:00 - 23.04.2018 04:00:00 (CEST)Leutkirch-Herlazhofen, Duitsland (10945): windrichting: 17.04.2018 04:00:00 - 23.04.2018 04:00:00 (CEST)Leutkirch-Herlazhofen, Duitsland (10945): luchtdruk: 17.04.2018 04:00:00 - 23.04.2018 04:00:00 (CEST)Leutkirch-Herlazhofen, Duitsland (10945): zicht: 17.04.2018 04:00:00 - 23.04.2018 04:00:00 (CEST)Leutkirch-Herlazhofen, Duitsland (10945): Zonneschijnduur: 17.04.2018 04:00:00 - 23.04.2018 04:00:00 (CEST)Leutkirch-Herlazhofen, Duitsland (10945): neerslag: 17.04.2018 04:00:00 - 23.04.2018 04:00:00 (CEST)
Datum & Tijd tt [°C] td [°C] tt 5cm [°C] tt -5cm [°C] tt -20cm [°C] tt -100cm [°C] ff [km/u] ff [kn] fx [km/u] fx [kn] dd ppp [hPa] vv [km] sd [min] rr [mm]
23.04.2018 04:00:00 10,9 6,5 8,0 12,4 14,9 9,0 9 5 16 8 ZZO 1017,9 39 0 0,0
23.04.2018 03:00:00 11,6 6,9 8,0 12,9 15,2 9,0 6 3 11 6 ZZO 1017,6 41 0 0,0
23.04.2018 02:00:00 10,3 7,0 7,7 13,4 15,5 9,0 9 5 10 6 OZO 1018,0 37 0 0,0
23.04.2018 01:00:00 10,5 6,9 7,1 13,9 15,9 8,9 3 2 13 7 NO 1017,7 42 0 0,0
23.04.2018 00:00:00 10,4 7,0 6,0 14,8 16,2 8,9 2 1 11 6 WNW 1017,3 40 0 0,0
22.04.2018 23:00:00 12,8 7,2 7,3 15,8 16,5 8,9 2 1 12 7 ZZO 1016,3 48 0 0,0
22.04.2018 22:00:00 11,9 7,6 7,5 17,0 16,7 8,9 3 2 6 3 ZZO 1016,4 48 0 0,0
22.04.2018 21:00:00 14,1 7,7 10,3 18,6 16,8 8,9 5 3 9 5 Z 1015,4 52 0 0,0
22.04.2018 20:00:00 16,8 9,2 14,1 20,6 16,7 8,9 6 3 13 7 Z 1014,1 70 40 0,0
22.04.2018 19:00:00 21,3 9,1 20,4 22,3 16,5 8,9 10 5 16 9 WZW 1012,7 42 60 0,0
22.04.2018 18:00:00 23,2 7,8 24,1 23,5 16,1 8,9 10 5 22 12 W 1012,3 29 60 0,0
22.04.2018 17:00:00 23,8 7,2 26,2 24,3 15,6 8,8 12 7 21 12 W 1012,4 35 60 0,0
22.04.2018 16:00:00 23,4 7,8 26,4 24,3 15,1 8,8 16 9 25 13 W 1013,0 17 60 0,0
22.04.2018 15:00:00 22,9 9,4 26,1 24,0 14,5 8,8 18 10 29 16 W 1013,9 16 60 0,0
22.04.2018 14:00:00 22,5 10,1 26,3 23,3 13,9 8,8 15 8 24 13 WZW 1014,4 25 60 0,0
22.04.2018 13:00:00 21,5 9,8 25,0 21,7 13,4 8,8 16 9 24 13 WZW 1014,9 24 60 0,0
22.04.2018 12:00:00 20,8 9,8 24,3 19,7 13,0 8,8 14 8 21 12 ZW 1015,6 21 60 0,0
22.04.2018 11:00:00 19,1 7,8 22,2 17,2 12,8 8,8 12 7 25 13 ZW 1016,5 40 60 0,0
22.04.2018 10:00:00 17,6 7,4 20,0 14,9 12,8 8,7 11 6 16 9 Z 1016,6 27 60 0,0
22.04.2018 09:00:00 15,3 8,3 17,2 12,0 12,9 8,7 4 2 7 4 ZO 1017,2 47 60 0,0
22.04.2018 08:00:00 10,7 6,9 11,2 10,0 13,2 8,7 4 2 11 6 ZO 1018,6 40 60 0,0
22.04.2018 07:00:00 6,0 4,0 2,8 9,6 13,6 8,7 7 4 10 6 ZO 1019,7 36 11 0,0
22.04.2018 06:00:00 4,8 3,6 0,8 10,1 13,9 8,7 3 1 5 3 ZZO 1020,1 23 0 0,0
22.04.2018 05:00:00 5,1 4,1 1,9 10,7 14,3 8,7 4 2 5 3 OZO 1020,1 29 0 0,0
22.04.2018 04:00:00 5,9 4,5 2,0 11,3 14,6 8,6 3 2 4 2 ZZW 1020,1 33 0 0,0
22.04.2018 03:00:00 6,9 5,1 3,4 12,1 15,0 8,6 4 2 7 4 ZO 1019,9 35 0 0,0
22.04.2018 02:00:00 9,5 5,7 5,9 12,8 15,4 8,6 8 5 11 6 ZZW 1019,5 46 0 0,0
22.04.2018 01:00:00 7,8 5,5 4,6 13,6 15,7 8,6 4 2 7 4 Z 1020,0 33 0 0,0
22.04.2018 00:00:00 8,2 5,8 4,6 14,6 16,1 8,6 0 0 10 5 N 1020,2 32 0 0,0
21.04.2018 23:00:00 9,4 6,2 6,2 15,8 16,4 8,6 6 3 10 5 NNO 1019,9 31 0 0,0
21.04.2018 22:00:00 11,4 7,2 6,9 17,2 16,6 8,6 3 2 5 3 Z 1019,1 25 0 0,0
21.04.2018 21:00:00 14,5 8,4 9,4 19,1 16,7 8,6 3 2 6 3 ZO 1017,9 35 8 0,0
21.04.2018 20:00:00 18,8 10,9 15,3 21,2 16,6 8,6 3 2 11 6 ZW 1016,4 70 60 0,0
21.04.2018 19:00:00 22,5 10,1 22,2 22,8 16,3 8,5 8 4 13 7 WZW 1015,6 28 60 0,0
21.04.2018 18:00:00 23,6 6,4 24,7 24,0 15,9 8,5 9 5 20 11 WNW 1015,7 19 60 0,0
21.04.2018 17:00:00 23,6 7,6 25,9 25,0 15,3 8,5 10 6 23 13 NW 1016,1 27 60 0,0
21.04.2018 16:00:00 23,9 9,1 27,4 25,2 14,6 8,5 8 4 21 12 W 1016,6 16 60 0,0
21.04.2018 15:00:00 23,1 8,4 27,5 24,7 14,0 8,5 8 4 16 9 W 1017,6 11 60 0,0
21.04.2018 14:00:00 22,3 8,7 26,5 23,4 13,3 8,5 9 5 17 9 ZW 1018,3 17 60 0,0
21.04.2018 13:00:00 21,3 9,0 25,3 21,6 12,8 8,5 10 5 18 10 W 1019,0 19 60 0,0
21.04.2018 12:00:00 19,8 7,2 23,7 19,2 12,4 8,4 12 6 18 10 WZW 1020,1 21 60 0,0
21.04.2018 11:00:00 18,8 6,6 21,9 16,8 12,2 8,4 12 7 20 11 WZW 1020,5 21 60 0,0
21.04.2018 10:00:00 17,9 7,0 20,2 14,2 12,2 8,4 10 5 13 7 ZW 1020,5 35 60 0,0
21.04.2018 09:00:00 15,0 9,2 16,6 11,3 12,3 8,4 6 3 9 5 ZZO 1021,1 58 60 0,0
21.04.2018 08:00:00 10,1 6,9 10,4 9,3 12,6 8,4 6 4 9 5 ZO 1022,4 41 60 0,0
21.04.2018 07:00:00 5,5 4,2 2,0 9,0 12,9 8,4 5 3 6 4 ZZW 1023,5 34 11 0,0
21.04.2018 06:00:00 4,9 3,9 1,1 9,5 13,3 8,4 4 2 8 4 ZZW 1023,4 30 0 0,0
21.04.2018 05:00:00 6,0 4,6 2,0 10,0 13,6 8,3 5 3 7 4 Z 1023,3 34 0 0,0
21.04.2018 04:00:00 6,3 5,0 1,5 10,7 14,0 8,3 4 2 9 5 Z 1023,3 36 0 0,0
21.04.2018 03:00:00 6,7 5,1 1,8 11,4 14,4 8,3 4 2 6 3 ZZW 1023,3 38 0 0,0
21.04.2018 02:00:00 6,8 5,0 3,1 12,1 14,7 8,3 0 0 10 5 N 1023,7 36 0 0,0
21.04.2018 01:00:00 8,6 5,6 4,7 12,9 15,1 8,3 6 3 11 6 Z 1023,4 52 0 0,0
21.04.2018 00:00:00 9,0 6,5 4,1 14,0 15,4 8,3 5 3 8 4 Z 1023,3 49 0 0,0
20.04.2018 23:00:00 10,0 6,9 5,6 15,2 15,7 8,3 3 2 6 3 ZZW 1023,1 51 0 0,0
20.04.2018 22:00:00 10,1 6,4 6,5 16,7 15,9 8,3 5 3 6 3 O 1023,3 39 0 0,0
20.04.2018 21:00:00 13,3 8,3 9,0 18,6 15,9 8,3 4 2 6 4 Z 1022,3 57 9 0,0
20.04.2018 20:00:00 18,3 10,7 15,3 20,8 15,8 8,2 4 2 7 4 ZZW 1020,5 63 60 0,0
20.04.2018 19:00:00 23,3 9,2 24,3 22,4 15,5 8,2 4 2 8 4 NNW 1019,3 38 60 0,0
20.04.2018 18:00:00 23,9 7,5 25,2 23,5 15,0 8,2 4 2 13 7 W 1019,6 34 60 0,0
20.04.2018 17:00:00 23,1 6,4 25,6 24,2 14,5 8,2 9 5 14 8 WZW 1020,2 21 60 0,0
20.04.2018 16:00:00 22,9 8,2 26,6 24,2 13,8 8,2 9 5 16 9 W 1020,8 22 60 0,0
20.04.2018 15:00:00 22,2 9,2 26,2 23,5 13,2 8,2 8 5 15 8 WZW 1021,5 22 60 0,0
20.04.2018 14:00:00 21,2 7,7 25,0 22,2 12,6 8,2 10 5 19 10 W 1022,1 21 60 0,0
20.04.2018 13:00:00 20,1 8,2 23,9 20,5 12,1 8,2 14 8 22 12 WZW 1022,7 16 60 0,0
20.04.2018 12:00:00 19,2 6,9 22,5 18,3 11,7 8,2 17 9 26 14 ZZW 1023,3 15 60 0,0
20.04.2018 11:00:00 18,0 5,2 20,7 16,4 11,4 8,1 18 10 25 13 ZW 1023,8 25 60 0,0
20.04.2018 10:00:00 17,2 6,4 19,5 13,6 11,4 8,1 4 2 9 5 O 1023,7 64 60 0,0
20.04.2018 09:00:00 14,0 7,6 15,9 10,5 11,6 8,1 2 1 8 4 O 1024,4 64 60 0,0
20.04.2018 08:00:00 8,9 6,2 8,7 8,5 11,9 8,1 3 1 6 4 Z 1025,9 35 60 0,0
20.04.2018 07:00:00 3,8 2,9 1,0 8,2 12,2 8,1 0 0 4 2 N 1027,2 21 7 0,0
20.04.2018 06:00:00 4,2 3,2 0,1 8,7 12,5 8,1 3 2 7 4 OZO 1027,1 7 0 0,0
20.04.2018 05:00:00 3,3 2,2 -0,2 9,3 12,9 8,1 4 2 11 6 WZW 1027,6 21 0 0,0
20.04.2018 04:00:00 5,0 3,8 1,4 9,9 13,2 8,1 4 2 8 4 OZO 1027,2 24 0 0,0
20.04.2018 03:00:00 6,0 4,3 2,2 10,6 13,6 8,1 4 2 6 3 ZO 1027,3 30 0 0,0
20.04.2018 02:00:00 7,6 4,8 3,0 11,4 13,9 8,0 3 2 7 4 Z 1027,1 28 0 0,0
20.04.2018 01:00:00 8,3 5,0 3,0 12,2 14,3 8,0 1 0 8 5 NNW 1027,0 29 0 0,0
20.04.2018 00:00:00 9,8 5,6 4,7 13,2 14,6 8,0 5 3 9 5 NW 1026,9 28 0 0,0
19.04.2018 23:00:00 9,8 5,5 5,5 14,3 14,9 8,0 3 2 7 4 NNW 1027,2 28 0 0,0
19.04.2018 22:00:00 11,7 5,9 7,5 15,7 15,1 8,0 4 2 14 7 WNW 1026,8 35 0 0,0
19.04.2018 21:00:00 15,6 6,2 11,5 17,4 15,2 8,0 11 6 16 9 ONO 1025,6 40 2 0,0
19.04.2018 20:00:00 18,7 6,5 14,9 19,3 15,2 8,0 8 4 18 10 NO 1024,6 42 60 0,0
19.04.2018 19:00:00 21,0 5,7 19,9 21,1 14,9 8,0 12 6 23 12 NO 1023,9 70 60 0,0
19.04.2018 18:00:00 22,2 7,6 23,3 22,6 14,5 8,0 9 5 25 13 NNO 1023,7 50 60 0,0
19.04.2018 17:00:00 22,7 6,2 26,0 23,7 13,9 8,0 7 4 20 11 NNO 1023,8 68 60 0,0
19.04.2018 16:00:00 22,1 8,2 25,5 24,1 13,2 8,0 11 6 22 12 NNO 1024,4 31 60 0,0
19.04.2018 15:00:00 21,7 7,4 25,5 23,9 12,4 8,0 8 4 15 8 O 1025,1 37 60 0,0
19.04.2018 14:00:00 21,7 7,4 26,6 22,8 11,7 8,0 4 2 10 6 N 1025,5 51 60 0,0
19.04.2018 13:00:00 20,0 5,1 23,9 20,6 11,1 7,9 5 3 11 6 N 1026,4 40 60 0,0
19.04.2018 12:00:00 19,5 - 23,7 18,0 10,6 - - - - - - 1026,6 59 - 0,0
19.04.2018 11:00:00 - - - - - - - - - - - - - - 0,0
19.04.2018 10:00:00 - - - - - - - - - - - - - - 0,0
19.04.2018 09:00:00 - - - - - - - - - - - - - - 0,0
19.04.2018 08:00:00 - - - - - - - - - - - - - - 0,0
19.04.2018 07:00:00 - - - - - - - - - - - - - - 0,0
19.04.2018 06:00:00 - - - - - - - - - - - - - - 0,0
19.04.2018 05:00:00 - - - - - - - - - - - - - - 0,0
19.04.2018 04:00:00 - - - - - - - - - - - - - - 0,0
19.04.2018 03:00:00 - - - - - - - - - - - - - - 0,0
19.04.2018 02:00:00 - - - - - - - - - - - - - - 0,0
19.04.2018 01:00:00 - - - - - - - - - - - - - - 0,0
19.04.2018 00:00:00 - - - - - - - - - - - - - - 0,0
18.04.2018 23:00:00 - - - - - - - - - - - - - - 0,0
18.04.2018 22:00:00 - - - - - - - - - - - - - - 0,0
18.04.2018 21:00:00 - - - - - - - - - - - - - - 0,0
18.04.2018 20:00:00 - - - - - - - - - - - - - - 0,0
18.04.2018 19:00:00 - - - - - - - - - - - - - - 0,0
18.04.2018 18:00:00 - - - - - - - - - - - - - - 0,0
18.04.2018 17:00:00 - - - - - - - - - - - - - - 0,0
18.04.2018 16:00:00 - - - - - - - - - - - - - - 0,0
18.04.2018 15:00:00 - - - - - - - - 39 21 - - - 60 0,0
18.04.2018 14:00:00 19,4 5,3 22,0 17,8 10,7 7,7 21 11 42 23 ONO 1028,0 14 60 0,0
18.04.2018 13:00:00 18,5 3,2 20,6 16,6 10,2 7,7 23 12 38 21 ONO 1028,7 18 60 0,0
18.04.2018 12:00:00 17,8 4,0 19,8 15,0 9,9 7,7 24 13 40 21 ONO 1029,0 20 60 0,0
18.04.2018 11:00:00 16,7 8,7 19,1 12,9 9,7 7,7 16 8 31 17 O 1029,3 27 60 0,0
18.04.2018 10:00:00 14,4 7,0 16,1 10,7 9,6 7,7 16 9 24 13 ONO 1030,0 21 60 0,0
18.04.2018 09:00:00 12,1 7,5 13,9 8,2 9,8 7,7 9 5 15 8 NO 1030,3 28 60 0,0
18.04.2018 08:00:00 6,8 4,7 6,8 6,4 10,1 7,7 5 3 6 3 WNW 1031,8 16 60 0,0
18.04.2018 07:00:00 2,3 2,0 -0,5 6,1 10,4 7,7 3 2 5 3 W 1032,9 7 5 0,0
18.04.2018 06:00:00 1,7 1,0 -1,7 6,6 10,7 7,7 0 0 5 3 N 1032,9 4,5 0 0,0
18.04.2018 05:00:00 3,6 3,4 -0,7 7,1 11,0 7,7 3 2 6 3 ZW 1032,3 4,5 0 0,0
18.04.2018 04:00:00 3,6 3,1 -0,5 7,7 11,4 7,6 3 1 5 3 W 1032,2 6 0 0,0
18.04.2018 03:00:00 4,7 3,9 0,0 8,3 11,7 7,6 2 1 5 3 WZW 1031,8 8 0 0,0
18.04.2018 02:00:00 5,2 4,2 0,6 9,0 12,0 7,6 0 0 4 2 N 1031,7 8 0 0,0
18.04.2018 01:00:00 6,0 4,7 1,1 9,8 12,4 7,6 0 0 6 4 N 1031,1 11 0 0,0
18.04.2018 00:00:00 5,1 3,9 1,9 10,7 12,7 7,6 4 2 6 4 NNW 1031,0 14 0 0,0
17.04.2018 23:00:00 7,3 5,2 3,4 11,7 12,9 7,6 3 2 4 2 ZZW 1030,1 16 0 0,0
17.04.2018 22:00:00 8,1 5,7 4,6 12,9 13,1 7,6 2 1 5 3 ZZO 1029,6 21 0 0,0
17.04.2018 21:00:00 10,2 6,4 5,7 14,4 13,2 7,6 4 2 10 6 OZO 1028,2 43 0 0,0
17.04.2018 20:00:00 15,5 5,6 11,4 16,0 13,2 7,6 7 4 18 10 NO 1025,8 46 54 0,0
17.04.2018 19:00:00 17,1 5,2 16,7 17,5 13,0 7,6 14 7 22 12 NO 1024,7 49 60 0,0
17.04.2018 18:00:00 17,8 5,3 18,7 18,5 12,7 7,6 12 6 26 14 ONO 1024,1 47 60 0,0
17.04.2018 17:00:00 18,3 5,1 20,7 19,2 12,3 7,6 12 6 27 14 NO 1023,9 62 60 0,0
17.04.2018 16:00:00 18,1 5,9 21,1 19,2 11,9 7,6 14 8 25 13 ONO 1023,8 34 60 0,0
17.04.2018 15:00:00 17,7 5,7 20,7 18,8 11,4 7,6 18 10 31 17 NO 1024,1 35 55 0,0
17.04.2018 14:00:00 16,7 5,0 16,8 18,2 10,9 7,6 13 7 28 15 ONO 1024,3 59 49 0,0
17.04.2018 13:00:00 17,0 6,4 19,8 17,5 10,4 7,5 14 7 24 13 O 1024,0 30 58 0,0
17.04.2018 12:00:00 15,8 7,6 18,3 15,7 10,1 7,5 14 8 22 12 ONO 1024,4 26 60 0,0
17.04.2018 11:00:00 14,7 7,7 17,7 13,8 9,8 7,5 13 7 22 12 NO 1024,5 38 60 0,0
17.04.2018 10:00:00 13,4 7,6 15,9 11,9 9,8 7,5 10 5 14 7 N 1024,1 38 60 0,0
17.04.2018 09:00:00 11,4 7,4 12,7 9,5 9,9 7,5 0 0 5 3 N 1024,2 37 60 0,0
17.04.2018 08:00:00 7,6 5,8 7,4 8,3 10,0 7,5 0 0 4 2 N 1024,9 22 57 0,0
17.04.2018 07:00:00 6,0 5,7 2,7 8,5 10,2 7,5 2 1 5 3 OZO 1024,7 1,1 0 0,0
17.04.2018 06:00:00 7,2 6,8 5,7 9,0 10,3 7,5 3 2 5 3 Z 1023,7 29 0 0,0
17.04.2018 05:00:00 7,8 7,4 6,7 9,3 10,4 7,5 2 1 5 3 NO 1023,2 35 0 0,0
17.04.2018 04:00:00 8,4 7,7 7,5 9,6 10,5 7,5 3 1 11 6 N 1022,5 53 0 0,0

tt = temperatuur
td = dauwpunt
tt 5cm = temperatuur 5cm
tt -5cm = temperatuur -5cm
tt -20cm = temperatuur -20cm
tt -100cm = temperatuur -100cm
ff = windsnelheid
fx = windstoten
dd = windrichting
ppp = luchtdruk
vv = zicht
sd = Zonneschijnduur
rr = neerslag

Weerstations in de omgeving